Ellington Field, TX

2:15 AM CDT on April 30, 2017 (GMT -0500)
Ellington

Weather History for KEFD - May, 2013

Change the Weather History Date:

Thursday, May 9, 2013

  Actual Average Record
Temperature  
Mean Temperature 76 °F -  
Max Temperature 80 °F 82 °F 96 °F (1998)
Min Temperature 71 °F 66 °F 62 °F (1997)
Cooling Degree Days 10    
Growing Degree Days 26 (Base 50)    
Moisture  
Dew Point 69 °F    
Average Humidity 82    
Maximum Humidity 89    
Minimum Humidity 73    
Precipitation  
Precipitation 0.00 in - - ()
Sea Level Pressure  
Sea Level Pressure 29.97 in    
Wind  
Wind Speed 7 mph (SSE)    
Max Wind Speed 15 mph    
Max Gust Speed -    
Visibility 9 miles    
Events Rain    
Averages and records for this station are not official NWS values.
T = Trace of Precipitation, MM = Missing Value Source: NWS Daily Summary

Daily Weather History Graph

Daily Weather History Graph

Search for Another Location

Airport or City:

Trip Planner

Search our weather history database for the weather conditions in past years. The results will help you decide how hot, cold, wet, or windy it might be!

Date:

Astronomy

May. 09, 2013 Rise Set
Actual Time 6:31 AM CDT 8:02 PM CDT
Civil Twilight 6:06 AM CDT 8:28 PM CDT
Nautical Twilight 5:35 AM CDT 8:59 PM CDT
Astronomical Twilight 5:03 AM CDT 9:31 PM CDT
Moon 6:14 AM CDT (5/9) 7:58 PM CDT (5/9)
Length of Visible Light 14h 22m
Length of Day
13h 30m
Waning Crescent, 0% of the Moon is Illuminated
May 9
Waning Crescent
May 9
New
May 17
First Quarter
May 24
Full
May 31
Last Quarter

Hourly Weather History & Observations

Time (CDT) Temp. Heat Index Dew Point Humidity Pressure Visibility Wind Dir Wind Speed Gust Speed Precip Events Conditions
12:50 AM 71.6 °F - 64.4 °F 78% 30.02 in 10.0 mi SSE 4.6 mph - N/A   Mostly Cloudy
1:50 AM 71.6 °F - 64.4 °F 78% 30.02 in 10.0 mi South 6.9 mph - N/A   Overcast
2:50 AM 71.6 °F - 64.4 °F 78% 30.01 in 10.0 mi SSE 5.8 mph - N/A   Overcast
3:50 AM 71.6 °F - 64.4 °F 78% 29.99 in 10.0 mi SSE 6.9 mph - N/A   Overcast
4:50 AM 71.6 °F - 64.4 °F 78% 29.98 in 10.0 mi SE 5.8 mph - N/A   Overcast
5:50 AM 73.4 °F - 64.4 °F 73% 29.98 in 10.0 mi SE 4.6 mph - N/A   Overcast
6:50 AM 73.4 °F - 66.2 °F 78% 29.99 in 10.0 mi SSE 6.9 mph - N/A   Overcast
7:50 AM 73.4 °F - 69.8 °F 88% 30.00 in 10.0 mi SSE 4.6 mph - N/A   Overcast
8:00 AM 73.4 °F - 69.8 °F 88% 30.00 in 10.0 mi SSE 4.6 mph - N/A   Overcast
8:50 AM 75.2 °F - 71.6 °F 89% 30.00 in 10.0 mi SE 5.8 mph - N/A   Overcast
9:50 AM 77.0 °F - 71.6 °F 83% 30.01 in 10.0 mi SSE 11.5 mph - N/A   Overcast
10:50 AM 77.0 °F - 71.6 °F 83% 30.02 in 7.0 mi SSE 10.4 mph - N/A   Overcast
11:50 AM 77.0 °F - 71.6 °F 83% 30.01 in 7.0 mi SSE 11.5 mph - N/A   Overcast
12:50 PM 78.8 °F - 71.6 °F 78% 30.00 in 7.0 mi SE 15.0 mph - N/A   Overcast
1:50 PM 78.8 °F - 71.6 °F 78% 29.98 in 7.0 mi SSE 11.5 mph - N/A   Overcast
2:50 PM 78.8 °F - 71.6 °F 78% 29.97 in 7.0 mi SSE 10.4 mph - N/A   Mostly Cloudy
3:50 PM 80.6 °F 84.6 °F 71.6 °F 74% 29.95 in 7.0 mi SSE 12.7 mph - N/A   Overcast
4:50 PM 78.8 °F - 71.6 °F 78% 29.93 in 7.0 mi SE 11.5 mph - N/A   Overcast
5:50 PM 77.0 °F - 71.6 °F 83% 29.89 in 10.0 mi ESE 9.2 mph - N/A   Overcast
6:50 PM 75.2 °F - 71.6 °F 89% 29.89 in 7.0 mi ESE 10.4 mph - N/A   Overcast
7:50 PM 75.2 °F - 71.6 °F 89% 29.91 in 7.0 mi ESE 10.4 mph - N/A   Overcast
8:50 PM 75.2 °F - 71.6 °F 89% 29.92 in 7.0 mi SE 4.6 mph - N/A   Overcast
9:50 PM 75.2 °F - 71.6 °F 89% 29.92 in 10.0 mi South 8.1 mph - N/A   Overcast
10:50 PM 75.2 °F - 71.6 °F 89% 29.94 in 7.0 mi SSE 8.1 mph - N/A Rain Light Rain
11:50 PM 73.4 °F - 69.8 °F 88% 29.94 in 7.0 mi South 3.5 mph - N/A Rain Light Rain